This is the latest recevied weather packets stored in our database for station/object OE8NDR-11. If no packets are shown the sender has not sent any weather packets the latest 10 day(s).
| Time | Temp. | Humidity | Pressure | Rain* | Wind** | Luminosity | Snow |
|---|---|---|---|---|---|---|---|
| 1778169786 | 21.11° C | 64% | 1016.1 hPa | 0 mm | - | - | - |
| 1778169486 | 20.56° C | 63% | 1016.2 hPa | 0 mm | - | - | - |
| 1778169186 | 20.56° C | 63% | 1016.3 hPa | 0 mm | - | - | - |
| 1778168886 | 20.56° C | 63% | 1016.2 hPa | 0 mm | - | - | - |
| 1778168586 | 20.56° C | 64% | 1016.1 hPa | 0 mm | - | - | - |
| 1778168328 | 20.56° C | 63% | 1016.1 hPa | 0 mm | - | - | - |
| 1778168286 | 20.56° C | 63% | 1016.1 hPa | 0 mm | - | - | - |
| 1778168100 | 20.56° C | 63% | 1016.1 hPa | 0 mm | - | - | - |
| 1778167986 | 20.56° C | 63% | 1016.1 hPa | 0 mm | - | - | - |
| 1778167686 | 20.56° C | 65% | 1016 hPa | 0 mm | - | - | - |
| 1778167386 | 20.56° C | 63% | 1016.1 hPa | 0 mm | - | - | - |
| 1778167086 | 20.56° C | 64% | 1016.2 hPa | 0 mm | - | - | - |
| 1778166786 | 20.56° C | 64% | 1016.3 hPa | 0 mm | - | - | - |
| 1778166486 | 20.56° C | 64% | 1016.3 hPa | 0 mm | - | - | - |
| 1778166186 | 20.56° C | 64% | 1016.2 hPa | 0 mm | - | - | - |
| 1778165886 | 20.56° C | 64% | 1016.4 hPa | 0 mm | - | - | - |
| 1778165586 | 20.56° C | 63% | 1016.4 hPa | 0 mm | - | - | - |
| 1778165286 | 20.56° C | 63% | 1016.3 hPa | 0 mm | - | - | - |
| 1778164986 | 20.56° C | 64% | 1016.4 hPa | 0 mm | - | - | - |
| 1778164686 | 20.56° C | 63% | 1016.5 hPa | 0 mm | - | - | - |
| 1778164386 | 20.56° C | 63% | 1016.5 hPa | 0 mm | - | - | - |
| 1778164086 | 20.56° C | 63% | 1016.4 hPa | 0 mm | - | - | - |
| 1778163786 | 20.56° C | 63% | 1016.6 hPa | 0 mm | - | - | - |
| 1778163486 | 21.11° C | 62% | 1016.5 hPa | 0 mm | - | - | - |
| 1778163186 | 20.56° C | 65% | 1016.5 hPa | 0 mm | - | - | - |
* Rain latest hour (hover to see other rain measurements)
** Current wind speed in m/s (hover to see current wind gust speed)